Normand Flipper — 9V6929 — position and weather

sailwx.info

Track history (hours):
 
Tides and Currents Weather Stations Pressure Air Temp Water Temp Dewpoint Dewpoint Depression Visibility Wind Speed Wind Dir Waves Ship Positions

Normand Flipper

Last reported at 2014-Jul-23 00:22 UTC. Time now 2014-Jul-23 09:50 UTC.
Position N 58°19' W 001°45'.

Length 80 m; draft 4.8 m.

Type: Cargo ship. MMSI: 566522000.

Date/timePositionNaut miles runAvg speedWind from/ knotsBaromVisibWave heightAir tempDewpointWater temp
2014-Jul-23 00:22N 58°19' W 001°45'0 0.0
2014-Jul-22 23:16N 58°19' W 001°45'0 0.0
2014-Jul-22 21:33N 58°19' W 001°45'0 0.0
2014-Jul-22 20:22N 58°19' W 001°45'1 0.0
2014-Jul-22 07:24N 58°18' W 001°46'27 2.9
2014-Jul-21 22:05N 57°51' W 001°43'610.8
2014-Jul-21 21:34N 57°45' W 001°42'1010.1
2014-Jul-21 20:34N 57°35' W 001°41'2 9.5
2014-Jul-21 20:18N 57°33' W 001°40'7 9.1
2014-Jul-21 19:33N 57°26' W 001°39'1 1.2
2014-Jul-21 18:34N 57°27' W 001°41'1 0.6
2014-Jul-21 17:33N 57°28' W 001°41'5 5.3
2014-Jul-21 16:33N 57°23' W 001°45'18 7.7
2014-Jul-21 14:14N 57°08' W 002°05'0 0.0
2014-Jul-21 12:07N 57°08' W 002°05'0 0.0
2014-Jul-21 11:31N 57°08' W 002°05'0 0.0
2014-Jul-21 10:28N 57°08' W 002°05'15 1.7
2014-Jul-21 01:33N 57°21' W 001°49'9 8.9
2014-Jul-21 00:33N 57°29' W 001°42'9 8.6
2014-Jul-20 23:33N 57°38' W 001°43'5 4.6
2014-Jul-20 22:33N 57°42' W 001°46'3 2.4
2014-Jul-20 21:32N 57°44' W 001°49'35 1.2
2014-Jul-19 17:13N 58°19' W 001°47'0 0.0
2014-Jul-19 16:33N 58°19' W 001°47'0 0.0
2014-Jul-19 15:33N 58°19' W 001°47'0 0.0
2014-Jul-19 11:19N 58°19' W 001°47'0 0.0
2014-Jul-19 10:33N 58°19' W 001°47'0 0.0
2014-Jul-19 09:23N 58°19' W 001°47'38 1.7
2014-Jul-18 11:33N 57°41' W 001°42'10 9.5
2014-Jul-18 10:33N 57°50' W 001°43'  
2014-Jul-13 00:31N 58°18' W 001°45'  
Track history (hours):
 
Tides and Currents Weather Stations Pressure Air Temp Water Temp Dewpoint Dewpoint Depression Visibility Wind Speed Wind Dir Waves Ship Positions

Normand Flipper

Last reported at 2014-Jul-23 00:22 UTC. Time now 2014-Jul-23 09:50 UTC.
Position N 58°19' W 001°45'.

Length 80 m; draft 4.8 m.

Type: Cargo ship. MMSI: 566522000.

Date/timePositionNaut miles runAvg speedWind from/ knotsBaromVisibWave heightAir tempDewpointWater temp
2014-Jul-23 00:22N 58°19' W 001°45'0 0.0
2014-Jul-22 23:16N 58°19' W 001°45'0 0.0
2014-Jul-22 21:33N 58°19' W 001°45'0 0.0
2014-Jul-22 20:22N 58°19' W 001°45'1 0.0
2014-Jul-22 07:24N 58°18' W 001°46'27 2.9
2014-Jul-21 22:05N 57°51' W 001°43'610.8
2014-Jul-21 21:34N 57°45' W 001°42'1010.1
2014-Jul-21 20:34N 57°35' W 001°41'2 9.5
2014-Jul-21 20:18N 57°33' W 001°40'7 9.1
2014-Jul-21 19:33N 57°26' W 001°39'1 1.2
2014-Jul-21 18:34N 57°27' W 001°41'1 0.6
2014-Jul-21 17:33N 57°28' W 001°41'5 5.3
2014-Jul-21 16:33N 57°23' W 001°45'18 7.7
2014-Jul-21 14:14N 57°08' W 002°05'0 0.0
2014-Jul-21 12:07N 57°08' W 002°05'0 0.0
2014-Jul-21 11:31N 57°08' W 002°05'0 0.0
2014-Jul-21 10:28N 57°08' W 002°05'15 1.7
2014-Jul-21 01:33N 57°21' W 001°49'9 8.9
2014-Jul-21 00:33N 57°29' W 001°42'9 8.6
2014-Jul-20 23:33N 57°38' W 001°43'5 4.6
2014-Jul-20 22:33N 57°42' W 001°46'3 2.4
2014-Jul-20 21:32N 57°44' W 001°49'35 1.2
2014-Jul-19 17:13N 58°19' W 001°47'0 0.0
2014-Jul-19 16:33N 58°19' W 001°47'0 0.0
2014-Jul-19 15:33N 58°19' W 001°47'0 0.0
2014-Jul-19 11:19N 58°19' W 001°47'0 0.0
2014-Jul-19 10:33N 58°19' W 001°47'0 0.0
2014-Jul-19 09:23N 58°19' W 001°47'38 1.7
2014-Jul-18 11:33N 57°41' W 001°42'10 9.5
2014-Jul-18 10:33N 57°50' W 001°43'  
2014-Jul-13 00:31N 58°18' W 001°45'  

Dump ship's entire track history